EW3857 Weather Reports


Display with metric or nautical units.
time (UTC)temp
F
wind
direction
speed
MPH
gust
MPH
rain 1hr
in
rain 24hr
in
rain mn
in
humidity
%
barometer
mb
20260903133837 81 25 0.0 0.0 0.00 0.00 0.00 93 1020.4
20260903133334 81 8 0.0 0.0 0.00 0.00 0.00 93 1020.5
20260903132828 80 13 0.0 0.0 0.00 0.00 0.00 93 1020.3
20260903132324 80 0 0.0 0.0 0.00 0.00 0.00 93 1020.4
20260903131819 80 335 0.0 0.0 0.00 0.00 0.00 93 1020.2
20260903131319 80 2 0.0 0.0 0.00 0.00 0.00 93 1020.5
20260903130813 80 6 0.0 0.0 0.00 0.00 0.00 93 1020.2
20260903130313 80 341 0.0 0.0 0.00 0.00 0.00 94 1020.2
20260903125811 80 26 0.0 0.0 0.00 0.00 0.00 93 1020.2
20260903125307 80 0 0.0 0.0 0.00 0.00 0.00 93 1020.4
20260903124806 80 348 0.0 0.0 0.00 0.00 0.00 93 1020.2
20260903124302 80 344 0.0 0.0 0.00 0.00 0.00 95 1020.2
20260903123800 80 10 0.0 0.0 0.00 0.00 0.00 95 1020.2
20260903123300 80 1 0.0 0.0 0.00 0.00 0.00 95 1020.5
20260903122758 79 341 0.0 0.0 0.00 0.00 0.00 95 1020.4
20260903122253 79 331 0.0 0.0 0.00 0.00 0.00 96 1020.3
20260903121751 79 348 0.0 0.0 0.00 0.00 0.00 97 1020.2
20260903121247 78 282 0.0 0.0 0.00 0.00 0.00 97 1020.2
20260903120742 78 273 0.0 0.0 0.00 0.00 0.00 98 1020.2
20260903120236 77 278 0.0 0.0 0.00 0.00 0.00 98 1020.2
20260903115734 77 278 0.0 0.0 0.00 0.00 0.00 98 1020.2
20260903115230 77 283 0.0 0.0 0.00 0.00 0.00 99 1020.3
20260903114725 77 285 0.0 0.0 0.00 0.00 0.00 99 1020.2
20260903114220 77 302 0.0 0.0 0.00 0.00 0.00 99 1020.0
20260903113715 77 277 0.0 0.0 0.00 0.00 0.00 99 1020.0
20260903113211 76 189 0.0 0.0 0.00 0.00 0.00 99 1019.9
20260903112707 76 189 0.0 0.0 0.00 0.00 0.00 99 1019.9
20260903112203 76 190 0.0 0.0 0.00 0.00 0.00 99 1019.8
20260903111701 76 189 0.0 0.0 0.00 0.00 0.00 99 1019.8
20260903111157 76 189 0.0 0.0 0.00 0.00 0.00 99 1019.9
20260903110653 76 189 0.0 0.0 0.00 0.00 0.00 99 1019.9
20260903110148 76 189 0.0 0.0 0.00 0.00 0.00 99 1019.6
20260903105642 76 190 0.0 0.0 0.00 0.00 0.00 99 1019.6
20260903105137 76 191 0.0 0.0 0.00 0.00 0.00 99 1019.7
20260903104637 76 190 0.0 0.0 0.00 0.00 0.00 99 1019.7
20260903104133 77 190 0.0 0.0 0.00 0.00 0.00 99 1019.6
20260903103628 77 189 0.0 0.0 0.00 0.00 0.00 99 1019.7
20260903103125 77 189 0.0 0.0 0.00 0.00 0.00 99 1019.6
20260903102620 77 189 0.0 0.0 0.00 0.00 0.00 99 1019.5
20260903102118 77 190 0.0 0.0 0.00 0.00 0.00 99 1019.5
20260903101613 77 191 0.0 0.0 0.00 0.00 0.00 99 1019.4
20260903101108 77 189 0.0 0.0 0.00 0.00 0.00 99 1019.3
20260903100603 77 190 0.0 0.0 0.00 0.00 0.00 99 1019.3
20260903095600 77 188 0.0 0.0 0.00 0.00 0.00 99 1019.3
20260903095055 77 190 0.0 0.0 0.00 0.00 0.00 99 1019.4
20260903094554 77 189 0.0 0.0 0.00 0.00 0.00 99 1019.4
20260903094045 77 189 0.0 0.0 0.00 0.00 0.00 99 1019.4
20260903093545 77 191 0.0 0.0 0.00 0.00 0.00 99 1019.4
20260903093040 77 190 0.0 0.0 0.00 0.00 0.00 99 1019.3
20260903092539 77 190 0.0 0.0 0.00 0.00 0.00 99 1019.5
20260903092034 77 188 0.0 0.0 0.00 0.00 0.00 99 1019.4
20260903091532 77 190 0.0 0.0 0.00 0.00 0.00 99 1019.3
20260903091027 77 187 0.0 0.0 0.00 0.00 0.00 99 1019.3
20260903090523 77 189 0.0 0.0 0.00 0.00 0.00 99 1019.3
20260903090021 76 216 0.0 0.0 0.00 0.00 0.00 99 1019.4
20260903085520 76 246 0.0 0.0 0.00 0.00 0.00 99 1019.2
20260903085015 76 235 0.0 0.0 0.00 0.00 0.00 99 1019.4
20260903084514 76 231 0.0 0.0 0.00 0.00 0.00 99 1019.3
20260903084008 76 230 0.0 0.0 0.00 0.00 0.00 99 1019.4
20260903083504 76 230 0.0 0.0 0.00 0.00 0.00 99 1019.3
20260903082959 76 233 0.0 0.0 0.00 0.00 0.00 99 1019.2
20260903082453 76 233 0.0 0.0 0.00 0.00 0.00 99 1019.2
20260903081948 76 233 0.0 0.0 0.00 0.00 0.00 99 1019.2
20260903081444 76 232 0.0 0.0 0.00 0.00 0.00 99 1019.1
20260903080940 76 233 0.0 0.0 0.00 0.00 0.00 99 1019.2
20260903080435 76 230 0.0 0.0 0.00 0.00 0.00 99 1019.0
20260903075930 76 230 0.0 0.0 0.00 0.00 0.00 99 1019.2
20260903075426 76 230 0.0 0.0 0.00 0.00 0.00 99 1019.0
20260903074921 76 233 0.0 0.0 0.00 0.00 0.00 99 1019.4
20260903074420 77 233 0.0 0.0 0.00 0.00 0.00 99 1019.2
20260903073916 77 234 0.0 0.0 0.00 0.00 0.00 99 1019.2
20260903073411 76 235 0.0 0.0 0.00 0.00 0.00 98 1019.1
20260903072907 76 239 0.0 0.0 0.00 0.00 0.00 98 1019.2
20260903072403 76 243 0.0 0.0 0.00 0.00 0.00 98 1018.9
20260903071900 76 245 0.0 0.0 0.00 0.00 0.00 98 1019.2
20260903071355 76 243 0.0 0.0 0.00 0.00 0.00 98 1019.3
20260903070850 76 243 0.0 0.0 0.00 0.00 0.00 98 1019.0
20260903070345 76 243 0.0 0.0 0.00 0.00 0.00 98 1019.1
20260903065839 76 244 0.0 0.0 0.00 0.00 0.00 98 1019.0
20260903065339 76 242 0.0 0.0 0.00 0.00 0.00 98 1019.1
20260903064833 76 245 0.0 0.0 0.00 0.00 0.00 98 1019.0
20260903064329 76 244 0.0 0.0 0.00 0.00 0.00 98 1019.3
20260903063824 76 243 0.0 0.0 0.00 0.00 0.00 98 1019.1
20260903063318 76 243 0.0 0.0 0.00 0.00 0.00 97 1019.2
20260903062814 76 243 0.0 0.0 0.00 0.00 0.00 97 1019.4
20260903062314 76 243 0.0 0.0 0.00 0.00 0.00 97 1019.2
20260903061810 76 243 0.0 0.0 0.00 0.00 0.00 97 1019.5
20260903061303 76 243 0.0 0.0 0.00 0.00 0.00 97 1019.4
20260903060754 76 243 0.0 0.0 0.00 0.00 0.00 97 1019.2
20260903060254 76 243 0.0 0.0 0.00 0.00 0.00 97 1019.3
20260903055751 76 243 0.0 0.0 0.00 0.00 0.00 97 1019.3
20260903055249 76 243 0.0 0.0 0.00 0.00 0.00 97 1019.2
20260903054745 76 243 0.0 0.0 0.00 0.00 0.00 97 1019.4
20260903054240 76 243 0.0 0.0 0.00 0.00 0.00 96 1019.5
20260903053737 76 243 0.0 0.0 0.00 0.00 0.00 96 1019.2
20260903053236 76 243 0.0 0.0 0.00 0.00 0.00 96 1019.4
20260903052732 76 243 0.0 0.0 0.00 0.00 0.00 96 1019.5
20260903052228 76 243 0.0 0.0 0.00 0.00 0.00 96 1019.3
20260903051722 76 243 0.0 0.0 0.00 0.00 0.00 96 1019.5
20260903051218 76 243 0.0 0.0 0.00 0.00 0.00 96 1019.4
20260903050714 76 243 0.0 0.0 0.00 0.00 0.00 95 1019.4
20260903050212 77 243 0.0 0.0 0.00 0.00 0.00 95 1019.5
20260903045707 77 244 0.0 0.0 0.00 0.00 0.00 95 1019.3
20260903045204 77 245 0.0 0.0 0.00 0.00 0.00 95 1019.2
20260903044659 77 243 0.0 0.0 0.00 0.00 0.00 95 1019.3
20260903044154 77 244 0.0 0.0 0.00 0.00 0.00 95 1019.4
20260903043646 77 243 0.0 0.0 0.00 0.00 0.00 95 1019.2
20260903043145 77 243 0.0 0.0 0.00 0.00 0.00 94 1019.2
20260903042644 77 244 0.0 0.0 0.00 0.00 0.00 94 1019.2
20260903042139 77 242 0.0 0.0 0.00 0.00 0.00 94 1019.5
20260903041636 77 242 0.0 0.0 0.00 0.00 0.00 94 1019.4
20260903041131 77 241 0.0 0.0 0.00 0.00 0.00 93 1019.2
20260903040631 77 239 0.0 0.0 0.00 0.00 0.00 93 1019.4
20260903040127 77 239 0.0 0.0 0.00 0.00 0.00 93 1019.3
20260903035622 77 239 0.0 0.0 0.00 0.00 0.00 92 1019.2
20260903035118 77 239 0.0 0.0 0.00 0.00 0.00 92 1019.3
20260903034612 77 238 0.0 0.0 0.00 0.00 0.00 92 1019.2
20260903034108 77 243 0.0 0.0 0.00 0.00 0.00 91 1019.4
20260903033603 77 243 0.0 0.0 0.00 0.00 0.00 91 1019.3
20260903033058 77 245 0.0 0.0 0.00 0.00 0.00 91 1019.3
20260903032553 77 243 0.0 0.0 0.00 0.00 0.00 91 1019.4
20260903032048 77 243 0.0 0.0 0.00 0.00 0.00 91 1019.4
20260903031548 77 243 0.0 0.0 0.00 0.00 0.00 90 1019.3
20260903031043 77 243 0.0 0.0 0.00 0.00 0.00 90 1019.2
20260903030538 77 243 0.0 0.0 0.00 0.00 0.00 90 1019.5
20260903030035 78 242 0.0 0.0 0.00 0.00 0.00 90 1019.6
20260903025530 78 243 0.0 0.0 0.00 0.00 0.00 90 1019.5
20260903025026 78 244 0.0 0.0 0.00 0.00 0.00 89 1019.5
20260903024525 78 243 0.0 0.0 0.00 0.00 0.00 89 1019.3
20260903024020 78 243 0.0 0.0 0.00 0.00 0.00 89 1019.6
20260903023515 78 243 0.0 0.0 0.00 0.00 0.00 89 1019.6
20260903023011 78 243 0.0 0.0 0.00 0.00 0.00 88 1019.4
20260903022510 78 241 0.0 0.0 0.00 0.00 0.00 88 1019.3
20260903022008 78 243 0.0 0.0 0.00 0.00 0.00 88 1019.4
20260903021503 78 270 0.0 0.0 0.00 0.00 0.00 87 1019.2
20260903020958 78 263 0.0 0.0 0.00 0.00 0.00 87 1019.4
20260903020454 78 262 0.0 0.0 0.00 0.00 0.00 86 1019.1
20260903015954 78 261 0.0 0.0 0.00 0.00 0.00 87 1019.5
20260903015450 79 264 0.0 0.0 0.00 0.00 0.00 86 1019.4
20260903014944 79 263 0.0 0.0 0.00 0.00 0.00 86 1019.1
20260903014443 79 264 0.0 0.0 0.00 0.00 0.00 85 1019.2
20260903013938 79 260 0.0 0.0 0.00 0.00 0.00 85 1019.2
20260903013433 79 267 0.0 0.0 0.00 0.00 0.00 86 1019.0
20260903012932 79 262 0.0 0.0 0.00 0.00 0.00 86 1019.0
20260903012432 79 261 0.0 0.0 0.00 0.00 0.00 86 1019.1
20260903011930 79 227 0.0 0.0 0.00 0.00 0.00 85 1018.8
20260903011426 80 235 0.0 0.0 0.00 0.00 0.00 85 1018.7
20260903010920 80 248 0.0 0.0 0.00 0.00 0.00 84 1018.7
20260903010416 80 247 0.0 0.0 0.00 0.00 0.00 84 1018.5
20260903005914 80 250 0.0 0.0 0.00 0.00 0.00 84 1018.7
20260903005409 80 251 0.0 0.0 0.00 0.00 0.00 84 1018.6
20260903004906 80 255 0.0 0.0 0.00 0.00 0.00 84 1018.6
20260903004401 81 199 0.0 0.0 0.00 0.00 0.00 83 1018.6
20260903003856 81 198 0.0 0.0 0.00 0.00 0.00 82 1018.6
20260903003350 81 195 0.0 0.0 0.00 0.00 0.00 83 1018.7
20260903002850 81 194 0.0 0.0 0.00 0.00 0.00 84 1018.8
20260903002345 82 191 0.0 0.0 0.00 0.00 0.00 81 1018.5
20260903001840 82 191 0.0 0.0 0.00 0.00 0.00 81 1018.5
20260903001335 82 190 0.0 0.0 0.00 0.00 0.00 80 1018.3
20260903000835 83 191 0.0 0.0 0.00 0.00 0.00 79 1018.2
20260903000332 83 190 0.0 0.0 0.00 0.00 0.00 80 1018.4
20260902235828 84 191 0.0 0.0 0.00 0.00 0.00 79 1018.2
20260902235323 84 192 0.0 0.0 0.00 0.00 0.00 79 1018.4
20260902234817 85 191 0.0 0.0 0.00 0.00 0.00 79 1018.5
20260902234317 85 193 0.0 0.0 0.00 0.00 0.00 79 1018.3
20260902233816 86 189 0.0 0.0 0.00 0.00 0.00 77 1018.6
20260902233311 86 189 0.0 0.0 0.00 0.00 0.00 77 1018.6
20260902232809 87 186 0.0 0.0 0.00 0.00 0.00 77 1018.4
20260902232310 88 186 0.0 0.0 0.00 0.00 0.00 75 1018.5
20260902231809 88 186 0.0 0.0 0.00 0.00 0.00 75 1018.6
20260902231304 89 185 0.0 0.0 0.00 0.00 0.00 74 1018.6
20260902230759 89 185 0.0 0.0 0.00 0.00 0.00 74 1018.6
20260902230258 90 182 0.0 0.0 0.00 0.00 0.00 74 1018.7
20260902225753 91 180 0.0 0.0 0.00 0.00 0.00 74 1018.7
20260902225248 91 179 0.0 0.0 0.00 0.00 0.00 70 1018.6
20260902224746 91 179 0.0 0.0 0.00 0.00 0.00 69 1018.8
20260902224242 91 176 0.0 0.0 0.00 0.00 0.00 71 1018.8
20260902223738 91 176 0.0 0.0 0.00 0.00 0.00 68 1018.7
20260902223237 92 176 0.0 0.0 0.00 0.00 0.00 64 1018.7
20260902222736 92 176 0.0 0.0 0.00 0.00 0.00 62 1018.5
20260902222231 92 173 0.0 0.0 0.00 0.00 0.00 52 1018.8
20260902221725 93 173 0.0 0.0 0.00 0.00 0.00 55 1018.8
20260902221219 93 173 0.0 0.0 0.00 0.00 0.00 53 1018.6
20260902220714 93 172 0.0 0.0 0.00 0.00 0.00 49 1018.9
20260902220214 93 172 0.0 0.0 0.00 0.00 0.00 50 1018.9
20260902215710 93 172 0.0 0.0 0.00 0.00 0.00 48 1018.8
20260902215205 93 174 0.0 0.0 0.00 0.00 0.00 49 1018.7
20260902214701 93 174 0.0 0.0 0.00 0.00 0.00 50 1018.9
20260902214159 93 170 0.0 0.0 0.00 0.00 0.00 48 1019.0
20260902213655 94 125 0.0 0.0 0.00 0.00 0.00 48 1019.0
20260902213149 94 174 0.0 0.0 0.00 0.00 0.00 47 1018.8
20260902212644 94 176 0.0 0.0 0.00 0.00 0.00 48 1019.1
20260902212141 94 174 0.0 0.0 0.00 0.00 0.00 51 1019.1
20260902211636 94 120 0.0 0.0 0.00 0.00 0.00 47 1019.2
20260902211131 94 172 0.0 0.0 0.00 0.00 0.00 50 1019.1
20260902210631 94 172 0.0 0.0 0.00 0.00 0.00 48 1019.2
20260902210126 94 171 0.0 0.0 0.00 0.00 0.00 47 1019.1
20260902205624 95 175 0.0 0.0 0.00 0.00 0.00 47 1019.4
20260902205120 96 175 0.0 0.0 0.00 0.00 0.00 47 1019.2
20260902204620 96 176 0.0 0.0 0.00 0.00 0.00 50 1019.1
20260902204109 96 176 0.0 0.0 0.00 0.00 0.00 50 1019.1
20260902203605 95 175 0.0 0.0 0.00 0.00 0.00 52 1019.3
20260902203104 95 168 0.0 0.0 0.00 0.00 0.00 50 1019.3
20260902202559 94 168 0.0 0.0 0.00 0.00 0.00 50 1019.5
20260902202056 94 124 0.0 0.0 0.00 0.00 0.00 51 1019.5
20260902201551 94 128 0.0 0.0 0.00 0.00 0.00 55 1019.5
20260902201050 94 177 0.0 0.0 0.00 0.00 0.00 57 1019.7
20260902200546 95 172 0.0 0.0 0.00 0.00 0.00 53 1019.7
20260902200036 95 164 0.0 0.0 0.00 0.00 0.00 55 1019.8
20260902195532 94 151 0.0 0.0 0.00 0.00 0.00 55 1019.9
20260902195030 94 168 0.0 0.0 0.00 0.00 0.00 53 1020.0
20260902194524 94 164 0.0 0.0 0.00 0.00 0.00 54 1019.8
20260902194019 94 155 0.0 0.0 0.00 0.00 0.00 56 1020.3
20260902193515 93 165 0.0 0.0 0.00 0.00 0.00 57 1020.1
20260902193015 93 169 0.0 0.0 0.00 0.00 0.00 59 1020.3
20260902192513 93 135 0.0 0.0 0.00 0.00 0.00 57 1020.1
20260902192012 93 140 0.0 0.0 0.00 0.00 0.00 60 1020.3
20260902191508 92 167 0.0 0.0 0.00 0.00 0.00 59 1020.2
20260902191002 92 152 0.0 0.0 0.00 0.00 0.00 63 1020.5
20260902190458 92 130 0.0 0.0 0.00 0.00 0.00 62 1020.5
20260902185953 92 147 0.0 0.0 0.00 0.00 0.00 64 1020.4
20260902185449 92 162 0.0 0.0 0.00 0.00 0.00 60 1020.5
20260902184944 92 165 0.0 0.0 0.00 0.00 0.00 63 1020.8
20260902184439 92 168 0.0 0.0 0.00 0.00 0.00 62 1020.7
20260902183935 92 167 0.0 0.0 0.00 0.00 0.00 64 1020.7
20260902183431 92 156 0.0 0.0 0.00 0.00 0.00 65 1020.8
20260902182927 92 150 0.0 0.0 0.00 0.00 0.00 67 1020.9
20260902182423 92 166 0.0 0.0 0.00 0.00 0.00 63 1020.8
20260902181919 92 168 0.0 0.0 0.00 0.00 0.00 66 1021.0
20260902181415 92 127 0.0 0.0 0.00 0.00 0.00 66 1020.9
20260902180909 91 118 0.0 0.0 0.00 0.00 0.00 63 1021.1
20260902180404 91 122 0.0 0.0 0.00 0.00 0.00 69 1020.9
20260902175900 91 147 0.0 0.0 0.00 0.00 0.00 67 1021.2
20260902175354 91 121 0.0 0.0 0.00 0.00 0.00 67 1021.2
20260902174849 91 129 0.0 0.0 0.00 0.00 0.00 66 1021.3
20260902174347 90 123 0.0 0.0 0.00 0.00 0.00 70 1021.1
20260902173837 90 114 0.0 0.0 0.00 0.00 0.00 68 1021.2
20260902173336 90 113 0.0 0.0 0.00 0.00 0.00 70 1021.6
20260902172831 90 119 0.0 0.0 0.00 0.00 0.00 71 1021.5
20260902172331 90 127 0.0 0.0 0.00 0.00 0.00 70 1021.7
20260902171825 90 120 0.0 0.0 0.00 0.00 0.00 71 1021.9
20260902171320 90 119 0.0 0.0 0.00 0.00 0.00 71 1021.7
20260902170812 90 158 0.0 0.0 0.00 0.00 0.00 72 1021.7
20260902170306 90 168 0.0 0.0 0.00 0.00 0.00 72 1022.1
20260902165801 90 162 0.0 0.0 0.00 0.00 0.00 71 1021.9
20260902165256 90 142 0.0 0.0 0.00 0.00 0.00 71 1022.3
20260902164750 90 167 0.0 0.0 0.00 0.00 0.00 71 1022.2
20260902164245 90 164 0.0 0.0 0.00 0.00 0.00 70 1022.2
20260902163739 90 166 0.0 0.0 0.00 0.00 0.00 70 1022.4
20260902163238 90 167 0.0 0.0 0.00 0.00 0.00 69 1022.3
20260902162732 89 169 0.0 0.0 0.00 0.00 0.00 68 1022.4
20260902162227 89 167 0.0 0.0 0.00 0.00 0.00 69 1022.7
20260902161722 89 164 0.0 0.0 0.00 0.00 0.00 68 1022.6
20260902161218 88 168 0.0 0.0 0.00 0.00 0.00 68 1022.7
20260902160714 87 125 0.0 0.0 0.00 0.00 0.00 69 1022.5
20260902160208 87 114 0.0 0.0 0.00 0.00 0.00 71 1022.4
20260902155706 88 134 0.0 0.0 0.00 0.00 0.00 68 1022.5
20260902155205 87 166 0.0 0.0 0.00 0.00 0.00 68 1022.8
20260902154701 87 142 0.0 0.0 0.00 0.00 0.00 69 1022.5
20260902154200 86 167 0.0 0.0 0.00 0.00 0.00 73 1022.6
20260902153655 86 134 0.0 0.0 0.00 0.00 0.00 74 1022.6
20260902153155 85 124 0.0 0.0 0.00 0.00 0.00 74 1022.8
20260902152651 85 165 0.0 0.0 0.00 0.00 0.00 74 1022.8
20260902152146 84 164 0.0 0.0 0.00 0.00 0.00 75 1022.6
20260902151642 84 170 0.0 0.0 0.00 0.00 0.00 79 1022.7
20260902151137 83 125 0.0 0.0 0.00 0.00 0.00 78 1022.5
20260902150632 83 127 0.0 0.0 0.00 0.00 0.00 83 1022.7
20260902150127 82 159 0.0 0.0 0.00 0.00 0.00 84 1022.6
20260902145622 82 138 0.0 0.0 0.00 0.00 0.00 85 1022.5
20260902145121 82 126 0.0 0.0 0.00 0.00 0.00 86 1022.6
20260902144618 82 135 0.0 0.0 0.00 0.00 0.00 88 1022.2
20260902144113 82 109 0.0 0.0 0.00 0.00 0.00 88 1022.4
20260902143607 82 120 0.0 0.0 0.00 0.00 0.00 88 1022.5
20260902143102 81 136 0.0 0.0 0.00 0.00 0.00 89 1022.4
20260902142558 81 118 0.0 0.0 0.00 0.00 0.00 89 1022.3
20260902142053 81 160 0.0 0.0 0.00 0.00 0.00 90 1022.5
20260902141548 81 95 0.0 0.0 0.00 0.00 0.00 90 1022.4
20260902141043 81 90 0.0 0.0 0.00 0.00 0.00 91 1022.5
20260902140538 80 109 0.0 0.0 0.00 0.00 0.00 92 1022.4
20260902140034 80 102 0.0 0.0 0.00 0.00 0.00 92 1022.5
20260902135533 80 86 0.0 0.0 0.00 0.00 0.00 92 1022.3
20260902135028 80 93 0.0 0.0 0.00 0.00 0.00 92 1022.4
20260902134523 80 79 0.0 0.0 0.00 0.00 0.00 91 1022.3
20260902134018 80 160 0.0 0.0 0.00 0.00 0.00 91 1022.6